Time,TemperatureF,DewpointF,PressureIn,WindDirection,WindDirectionDegrees,WindSpeedMPH,WindSpeedGustMPH,Humidity,HourlyPrecipIn,Conditions,Clouds,dailyrainin,SoftwareType,DateUTC
2013-11-07 00:00:00,48.7,40.1,29.82,South,180,5.8,5.8,72,0.00,CLR,BKN,0.01,WeatherDisplay:10.37,2013-11-06 23:00:00,
2013-11-07 00:05:00,48.7,40.1,29.82,South,180,4.6,4.6,72,0.00,CLR,BKN,0.01,WeatherDisplay:10.37,2013-11-06 23:05:00,
2013-11-07 00:10:00,48.7,40.1,29.82,West,270,4.6,4.6,72,0.00,CLR,BKN,0.01,WeatherDisplay:10.37,2013-11-06 23:10:00,
2013-11-07 00:15:00,48.6,39.9,29.82,SW,225,4.6,4.6,72,0.00,CLR,BKN,0.01,WeatherDisplay:10.37,2013-11-06 23:15:00,
2013-11-07 00:20:00,48.7,40.1,29.83,West,270,4.6,4.6,72,0.00,CLR,BKN,0.01,WeatherDisplay:10.37,2013-11-06 23:20:00,
2013-11-07 00:25:00,48.6,39.9,29.83,NNE,22,2.3,2.3,72,0.00,CLR,BKN,0.01,WeatherDisplay:10.37,2013-11-06 23:25:00,
2013-11-07 00:30:00,48.6,40.3,29.83,NE,45,1.6,0.0,73,0.00,CLR,BKN,0.01,WeatherDisplay:10.37,2013-11-06 23:30:00,
2013-11-07 00:35:00,48.4,40.1,29.83,West,270,1.6,1.6,73,0.00,CLR,BKN,0.01,WeatherDisplay:10.37,2013-11-06 23:35:00,
2013-11-07 00:40:00,48.4,40.1,29.83,NW,315,5.8,5.8,73,0.00,CLR,BKN,0.01,WeatherDisplay:10.37,2013-11-06 23:40:00,
2013-11-07 00:45:00,48.4,40.1,29.83,West,270,3.5,3.5,73,0.00,CLR,BKN,0.01,WeatherDisplay:10.37,2013-11-06 23:45:00,
2013-11-07 00:50:00,48.2,40.3,29.84,SSW,202,5.8,5.8,74,0.00,CLR,BKN,0.01,WeatherDisplay:10.37,2013-11-06 23:50:00,
2013-11-07 00:55:00,48.2,40.3,29.84,West,270,3.5,3.5,74,0.00,CLR,BKN,0.01,WeatherDisplay:10.37,2013-11-06 23:55:00,
2013-11-07 01:00:00,48.2,40.3,29.84,SE,135,5.8,5.8,74,0.00,CLR,BKN,0.01,WeatherDisplay:10.37,2013-11-07 00:00:00,
2013-11-07 01:05:00,48.4,40.1,29.85,NW,315,3.5,3.5,73,0.00,CLR,BKN,0.01,WeatherDisplay:10.37,2013-11-07 00:05:00,
2013-11-07 01:10:00,48.4,40.1,29.84,NW,315,2.3,2.3,73,0.00,CLR,BKN,0.01,WeatherDisplay:10.37,2013-11-07 00:10:00,
2013-11-07 01:15:00,48.4,40.1,29.85,NE,45,3.8,3.8,73,0.00,CLR,BKN,0.01,WeatherDisplay:10.37,2013-11-07 00:15:00,
2013-11-07 01:20:00,48.2,39.9,29.85,NE,45,2.3,2.3,73,0.00,CLR,BKN,0.01,WeatherDisplay:10.37,2013-11-07 00:20:00,
2013-11-07 01:25:00,48.0,40.5,29.85,NE,45,3.5,3.5,75,0.00,CLR,BKN,0.01,WeatherDisplay:10.37,2013-11-07 00:25:00,
2013-11-07 01:30:00,48.0,40.5,29.85,SW,225,3.5,3.5,75,0.00,CLR,BKN,0.01,WeatherDisplay:10.37,2013-11-07 00:30:00,
2013-11-07 01:35:00,48.0,40.5,29.85,NW,315,3.5,3.5,75,0.00,CLR,BKN,0.01,WeatherDisplay:10.37,2013-11-07 00:35:00,
2013-11-07 01:40:00,48.0,40.5,29.85,South,180,2.3,2.3,75,0.00,CLR,BKN,0.01,WeatherDisplay:10.37,2013-11-07 00:40:00,
2013-11-07 01:45:00,48.0,40.5,29.86,SE,135,2.3,2.3,75,0.00,CLR,BKN,0.01,WeatherDisplay:10.37,2013-11-07 00:45:00,
2013-11-07 01:50:00,48.0,40.8,29.86,SE,135,3.5,3.5,76,0.00,CLR,BKN,0.01,WeatherDisplay:10.37,2013-11-07 00:50:00,
2013-11-07 01:55:00,47.8,40.6,29.86,South,180,2.3,2.3,76,0.00,CLR,BKN,0.01,WeatherDisplay:10.37,2013-11-07 00:55:00,
2013-11-07 02:00:00,47.8,40.6,29.86,SSW,194,3.0,7.0,76,0.00,CLR,BKN,0.01,WeatherDisplay:10.37,2013-11-07 01:00:00,
2013-11-07 02:05:00,47.8,40.6,29.86,SW,218,3.0,5.0,76,0.00,CLR,BKN,0.01,WeatherDisplay:10.37,2013-11-07 01:05:00,
2013-11-07 02:10:00,48.2,40.6,29.87,SW,227,2.0,5.0,75,0.00,CLR,BKN,0.01,WeatherDisplay:10.37,2013-11-07 01:10:00,
2013-11-07 02:16:00,48.4,40.8,29.87,SW,225,5.8,5.8,75,0.00,CLR,BKN,0.01,WeatherDisplay:10.37,2013-11-07 01:16:00,
2013-11-07 02:21:00,48.6,41.0,29.87,SE,135,4.6,4.6,75,0.00,BKN,,0.01,WeatherDisplay:10.37,2013-11-07 01:21:00,
2013-11-07 02:26:00,48.7,40.8,29.88,SW,225,5.8,5.8,74,0.00,BKN,,0.01,WeatherDisplay:10.37,2013-11-07 01:26:00,
2013-11-07 02:31:00,48.7,40.8,29.87,NW,315,3.5,0.0,74,0.00,BKN,,0.01,WeatherDisplay:10.37,2013-11-07 01:31:00,
2013-11-07 02:36:00,48.7,40.8,29.88,South,180,2.3,2.3,74,0.00,BKN,,0.01,WeatherDisplay:10.37,2013-11-07 01:36:00,
2013-11-07 02:41:00,48.7,40.8,29.87,West,270,2.3,2.3,74,0.00,BKN,,0.01,WeatherDisplay:10.37,2013-11-07 01:41:00,
2013-11-07 02:46:00,48.9,41.0,29.87,WSW,248,4.6,4.6,74,0.00,BKN,,0.01,WeatherDisplay:10.37,2013-11-07 01:46:00,
2013-11-07 02:51:00,48.9,41.0,29.87,SSW,202,8.1,8.1,74,0.00,CLR,BKN,0.01,WeatherDisplay:10.37,2013-11-07 01:51:00,
2013-11-07 02:56:00,48.7,40.8,29.87,SW,225,6.9,6.9,74,0.00,CLR,BKN,0.01,WeatherDisplay:10.37,2013-11-07 01:56:00,
2013-11-07 03:01:00,48.7,41.2,29.88,West,270,5.4,5.4,75,0.00,CLR,BKN,0.01,WeatherDisplay:10.37,2013-11-07 02:01:00,
2013-11-07 03:06:00,48.7,41.2,29.88,West,270,3.5,3.5,75,0.00,CLR,BKN,0.01,WeatherDisplay:10.37,2013-11-07 02:06:00,
2013-11-07 03:11:00,48.7,41.2,29.88,West,270,6.9,6.9,75,0.00,CLR,BKN,0.01,WeatherDisplay:10.37,2013-11-07 02:11:00,
2013-11-07 03:16:00,48.7,41.2,29.88,SW,225,5.8,5.8,75,0.00,CLR,BKN,0.01,WeatherDisplay:10.37,2013-11-07 02:16:00,
2013-11-07 03:21:00,48.7,41.2,29.87,SW,225,4.6,4.6,75,0.00,CLR,BKN,0.01,WeatherDisplay:10.37,2013-11-07 02:21:00,
2013-11-07 03:26:00,48.7,41.5,29.87,SW,225,8.1,8.1,76,0.00,CLR,BKN,0.01,WeatherDisplay:10.37,2013-11-07 02:26:00,
2013-11-07 03:31:00,48.7,41.5,29.87,SW,225,8.3,8.3,76,0.00,CLR,BKN,0.01,WeatherDisplay:10.37,2013-11-07 02:31:00,
2013-11-07 03:36:00,48.7,41.5,29.87,NW,315,8.1,8.1,76,0.00,CLR,BKN,0.01,WeatherDisplay:10.37,2013-11-07 02:36:00,
2013-11-07 03:41:00,48.6,41.3,29.87,SW,225,6.9,6.9,76,0.00,CLR,BKN,0.01,WeatherDisplay:10.37,2013-11-07 02:41:00,
2013-11-07 03:46:00,48.6,41.7,29.88,West,270,8.1,8.1,77,0.00,CLR,BKN,0.01,WeatherDisplay:10.37,2013-11-07 02:46:00,
2013-11-07 03:51:00,48.6,41.7,29.87,SW,225,10.4,10.4,77,0.00,CLR,BKN,0.01,WeatherDisplay:10.37,2013-11-07 02:51:00,
2013-11-07 03:56:00,48.7,41.8,29.87,West,270,5.8,5.8,77,0.00,CLR,BKN,0.01,WeatherDisplay:10.37,2013-11-07 02:56:00,
2013-11-07 04:01:00,48.7,41.8,29.87,WNW,292,8.1,8.1,77,0.00,CLR,BKN,0.01,WeatherDisplay:10.37,2013-11-07 03:01:00,
2013-11-07 04:06:00,48.7,41.8,29.87,WNW,292,4.6,4.6,77,0.00,CLR,BKN,0.01,WeatherDisplay:10.37,2013-11-07 03:06:00,
2013-11-07 04:11:00,48.7,41.8,29.88,SE,135,5.8,5.8,77,0.00,CLR,BKN,0.01,WeatherDisplay:10.37,2013-11-07 03:11:00,
2013-11-07 04:16:00,48.7,41.8,29.87,NW,315,3.5,0.0,77,0.00,CLR,BKN,0.01,WeatherDisplay:10.37,2013-11-07 03:16:00,
2013-11-07 04:21:00,48.7,41.8,29.87,SE,135,3.5,3.5,77,0.00,BKN,,0.01,WeatherDisplay:10.37,2013-11-07 03:21:00,
2013-11-07 04:26:00,48.7,41.8,29.87,NE,45,4.5,4.5,77,0.00,BKN,,0.01,WeatherDisplay:10.37,2013-11-07 03:26:00,
2013-11-07 04:31:00,48.6,41.7,29.87,ESE,112,3.8,3.8,77,0.00,BKN,,0.01,WeatherDisplay:10.37,2013-11-07 03:31:00,
2013-11-07 04:36:00,48.6,42.0,29.88,ESE,112,3.5,0.0,78,0.00,BKN,,0.01,WeatherDisplay:10.37,2013-11-07 03:36:00,
2013-11-07 04:41:00,48.4,41.8,29.88,ESE,112,1.2,0.0,78,0.00,BKN,,0.01,WeatherDisplay:10.37,2013-11-07 03:41:00,
2013-11-07 04:46:00,48.4,41.5,29.87,North,0,1.2,0.0,77,0.00,BKN,,0.01,WeatherDisplay:10.37,2013-11-07 03:46:00,
2013-11-07 04:51:00,48.4,41.8,29.88,NE,45,2.3,2.3,78,0.00,-RA,BKN,0.01,WeatherDisplay:10.37,2013-11-07 03:51:00,
2013-11-07 04:56:00,48.4,41.8,29.88,East,90,3.5,3.5,78,0.00,-RA,BKN,0.01,WeatherDisplay:10.37,2013-11-07 03:56:00,
2013-11-07 05:01:00,48.4,41.8,29.88,East,90,3.5,3.5,78,0.00,-RA,BKN,0.01,WeatherDisplay:10.37,2013-11-07 04:01:00,
2013-11-07 05:06:00,48.4,41.8,29.88,SE,135,3.5,3.5,78,0.00,-RA,BKN,0.01,WeatherDisplay:10.37,2013-11-07 04:06:00,
2013-11-07 05:11:00,48.4,41.8,29.88,SE,135,2.3,2.3,78,0.00,-RA,BKN,0.01,WeatherDisplay:10.37,2013-11-07 04:11:00,
2013-11-07 05:16:00,48.2,42.0,29.88,NE,45,1.6,1.6,79,0.00,-RA,BKN,0.01,WeatherDisplay:10.37,2013-11-07 04:16:00,
2013-11-07 05:21:00,48.2,42.0,29.88,SE,135,1.6,1.6,79,0.00,OVC,BKN,0.01,WeatherDisplay:10.37,2013-11-07 04:21:00,
2013-11-07 05:26:00,48.2,42.3,29.88,South,180,3.5,3.5,80,0.00,OVC,BKN,0.01,WeatherDisplay:10.37,2013-11-07 04:26:00,
2013-11-07 05:31:00,48.0,42.5,29.89,South,180,3.5,3.5,81,0.00,OVC,BKN,0.01,WeatherDisplay:10.37,2013-11-07 04:31:00,
2013-11-07 05:36:00,48.0,42.5,29.88,South,180,3.5,3.5,81,0.00,OVC,BKN,0.01,WeatherDisplay:10.37,2013-11-07 04:36:00,
2013-11-07 05:41:00,48.0,42.5,29.89,SW,225,2.3,2.3,81,0.00,OVC,BKN,0.01,WeatherDisplay:10.37,2013-11-07 04:41:00,
2013-11-07 05:46:00,48.0,42.8,29.89,South,180,3.8,3.8,82,0.00,OVC,BKN,0.01,WeatherDisplay:10.37,2013-11-07 04:46:00,
2013-11-07 05:51:00,48.0,42.8,29.90,SW,225,4.6,4.6,82,0.00,-RA,BKN,0.01,WeatherDisplay:10.37,2013-11-07 04:51:00,
2013-11-07 05:56:00,48.0,42.8,29.89,NW,315,5.8,5.8,82,0.00,-RA,BKN,0.01,WeatherDisplay:10.37,2013-11-07 04:56:00,
2013-11-07 06:02:00,48.0,42.8,29.89,SW,225,3.8,3.8,82,0.00,-RA,BKN,0.01,WeatherDisplay:10.37,2013-11-07 05:02:00,
2013-11-07 06:03:00,48.0,42.8,29.90,SW,225,3.8,3.8,82,0.00,-RA,BKN,0.01,WeatherDisplay:10.37,2013-11-07 05:03:00,
2013-11-07 06:04:00,48.0,42.8,29.90,SW,225,3.5,3.5,82,0.00,-RA,BKN,0.01,WeatherDisplay:10.37,2013-11-07 05:04:00,
2013-11-07 06:05:00,48.0,42.8,29.89,SW,225,3.8,3.8,82,0.00,-RA,BKN,0.01,WeatherDisplay:10.37,2013-11-07 05:05:00,
2013-11-07 06:06:00,48.0,42.8,29.89,SW,225,3.8,3.8,82,0.00,-RA,BKN,0.01,WeatherDisplay:10.37,2013-11-07 05:06:00,
2013-11-07 06:09:00,48.0,42.8,29.89,SW,225,3.5,3.5,82,0.00,-RA,BKN,0.01,WeatherDisplay:10.37,2013-11-07 05:09:00,
2013-11-07 06:14:00,48.0,42.8,29.90,SW,225,3.8,3.8,82,0.00,-RA,BKN,0.01,WeatherDisplay:10.37,2013-11-07 05:14:00,
2013-11-07 06:19:00,48.0,42.8,29.89,SW,225,3.5,3.5,82,0.00,-DZ,BKN,0.01,WeatherDisplay:10.37,2013-11-07 05:19:00,
2013-11-07 06:24:00,48.0,43.1,29.89,South,180,4.6,4.6,83,0.00,-DZ,BKN,0.01,WeatherDisplay:10.37,2013-11-07 05:24:00,
2013-11-07 06:29:00,47.8,42.9,29.89,SW,225,5.8,5.8,83,0.00,-DZ,BKN,0.01,WeatherDisplay:10.37,2013-11-07 05:29:00,
2013-11-07 06:34:00,47.8,43.2,29.89,SSE,158,4.6,4.6,84,0.00,-DZ,BKN,0.01,WeatherDisplay:10.37,2013-11-07 05:34:00,
2013-11-07 06:39:00,47.7,43.4,29.89,South,180,3.5,3.5,85,0.00,-DZ,BKN,0.01,WeatherDisplay:10.37,2013-11-07 05:39:00,
2013-11-07 06:44:00,47.5,43.5,29.89,SE,135,3.5,3.5,86,0.00,-DZ,BKN,0.01,WeatherDisplay:10.37,2013-11-07 05:44:00,
2013-11-07 06:49:00,47.5,43.5,29.89,South,180,3.5,3.5,86,0.00,OVC,BKN,0.01,WeatherDisplay:10.37,2013-11-07 05:49:00,
2013-11-07 06:54:00,47.3,43.6,29.90,SE,135,3.5,3.5,87,0.00,OVC,BKN,0.01,WeatherDisplay:10.37,2013-11-07 05:54:00,
2013-11-07 06:59:00,47.3,43.6,29.90,South,180,3.5,3.5,87,0.00,OVC,BKN,0.01,WeatherDisplay:10.37,2013-11-07 05:59:00,
2013-11-07 07:04:00,47.1,43.7,29.90,SE,135,6.0,6.0,88,0.00,RA,BKN,0.00,WeatherDisplay:10.37,2013-11-07 06:04:00,
2013-11-07 07:09:00,47.1,44.0,29.91,SE,135,6.9,6.9,89,0.00,RA,BKN,0.00,WeatherDisplay:10.37,2013-11-07 06:09:00,
2013-11-07 07:14:00,47.1,44.0,29.90,SW,225,6.0,6.0,89,0.00,OVC,BKN,0.00,WeatherDisplay:10.37,2013-11-07 06:14:00,
2013-11-07 07:19:00,47.1,44.3,29.90,SE,135,5.8,5.8,90,0.00,OVC,BKN,0.00,WeatherDisplay:10.37,2013-11-07 06:19:00,
2013-11-07 07:24:00,47.1,44.6,29.90,South,180,6.0,6.0,91,0.00,OVC,BKN,0.00,WeatherDisplay:10.37,2013-11-07 06:24:00,
2013-11-07 07:29:00,47.1,44.6,29.90,South,180,8.1,8.1,91,0.00,OVC,BKN,0.00,WeatherDisplay:10.37,2013-11-07 06:29:00,
2013-11-07 07:34:00,47.1,44.9,29.90,South,180,6.9,6.9,92,0.00,OVC,BKN,0.00,WeatherDisplay:10.37,2013-11-07 06:34:00,
2013-11-07 07:39:00,47.1,44.9,29.90,SW,225,6.9,6.9,92,0.00,OVC,BKN,0.00,WeatherDisplay:10.37,2013-11-07 06:39:00,
2013-11-07 07:44:00,47.1,44.9,29.90,SW,225,8.1,8.1,92,0.00,OVC,BKN,0.00,WeatherDisplay:10.37,2013-11-07 06:44:00,
2013-11-07 07:49:00,47.1,44.9,29.90,South,180,10.4,10.4,92,0.00,BKN,,0.00,WeatherDisplay:10.37,2013-11-07 06:49:00,
2013-11-07 07:54:00,47.3,45.4,29.90,SSW,202,5.8,5.8,93,0.00,BKN,,0.00,WeatherDisplay:10.37,2013-11-07 06:54:00,
2013-11-07 07:59:00,47.3,45.4,29.90,South,180,8.1,8.1,93,0.00,BKN,,0.00,WeatherDisplay:10.37,2013-11-07 06:59:00,
2013-11-07 08:04:00,47.3,45.4,29.91,South,180,8.1,8.1,93,0.00,BKN,,0.00,WeatherDisplay:10.37,2013-11-07 07:04:00,
2013-11-07 08:09:00,47.5,45.6,29.90,SW,225,8.1,8.1,93,0.00,BKN,,0.00,WeatherDisplay:10.37,2013-11-07 07:09:00,
2013-11-07 08:14:00,47.7,45.7,29.91,WSW,248,6.0,6.0,93,0.00,BKN,,0.00,WeatherDisplay:10.37,2013-11-07 07:14:00,
2013-11-07 08:19:00,47.8,45.9,29.90,SW,225,4.6,4.6,93,0.00,BKN,,0.00,WeatherDisplay:10.37,2013-11-07 07:19:00,
2013-11-07 08:24:00,48.0,46.1,29.90,South,180,9.2,9.2,93,0.00,BKN,,0.00,WeatherDisplay:10.37,2013-11-07 07:24:00,
2013-11-07 08:29:00,48.2,46.0,29.90,SW,225,6.9,6.9,92,0.00,BKN,,0.00,WeatherDisplay:10.37,2013-11-07 07:29:00,
2013-11-07 08:34:00,48.4,46.2,29.90,South,180,5.8,5.8,92,0.00,BKN,,0.00,WeatherDisplay:10.37,2013-11-07 07:34:00,
2013-11-07 08:39:00,49.1,46.9,29.90,South,180,6.9,6.9,92,0.00,BKN,,0.00,WeatherDisplay:10.37,2013-11-07 07:39:00,
2013-11-07 08:44:00,49.6,47.4,29.90,South,180,6.9,6.9,92,0.00,BKN,,0.00,WeatherDisplay:10.37,2013-11-07 07:44:00,
2013-11-07 08:49:00,50.4,47.8,29.90,South,180,9.8,9.8,91,0.00,CLR,BKN,0.00,WeatherDisplay:10.37,2013-11-07 07:49:00,
2013-11-07 08:54:00,50.9,48.1,29.91,SW,225,9.2,9.2,90,0.00,CLR,BKN,0.00,WeatherDisplay:10.37,2013-11-07 07:54:00,
2013-11-07 08:59:00,51.3,47.8,29.90,SW,225,10.4,10.4,88,0.00,CLR,BKN,0.00,WeatherDisplay:10.37,2013-11-07 07:59:00,
2013-11-07 09:04:00,51.3,47.2,29.91,South,180,8.1,8.1,86,0.00,CLR,BKN,0.00,WeatherDisplay:10.37,2013-11-07 08:04:00,
2013-11-07 09:09:00,51.3,46.9,29.91,South,180,8.1,8.1,85,0.00,CLR,BKN,0.00,WeatherDisplay:10.37,2013-11-07 08:09:00,
2013-11-07 09:14:00,51.3,46.9,29.91,West,270,5.8,5.8,85,0.00,CLR,BKN,0.00,WeatherDisplay:10.37,2013-11-07 08:14:00,
2013-11-07 09:19:00,51.3,46.9,29.91,South,180,8.1,8.1,85,0.00,BKN,,0.00,WeatherDisplay:10.37,2013-11-07 08:19:00,
2013-11-07 09:24:00,51.3,46.9,29.91,South,180,8.1,8.1,85,0.00,BKN,,0.00,WeatherDisplay:10.37,2013-11-07 08:24:00,
2013-11-07 09:29:00,51.6,47.3,29.91,South,180,5.8,5.8,85,0.00,BKN,,0.00,WeatherDisplay:10.37,2013-11-07 08:29:00,
2013-11-07 09:34:00,52.3,47.6,29.90,WSW,248,6.9,6.9,84,0.00,BKN,,0.00,WeatherDisplay:10.37,2013-11-07 08:34:00,
2013-11-07 09:39:00,52.7,47.7,29.90,WSW,248,11.5,11.5,83,0.00,BKN,,0.00,WeatherDisplay:10.37,2013-11-07 08:39:00,
2013-11-07 09:44:00,52.9,47.5,29.91,South,180,9.2,9.2,82,0.00,BKN,,0.00,WeatherDisplay:10.37,2013-11-07 08:44:00,
2013-11-07 09:49:00,52.9,47.2,29.91,SW,225,10.4,10.4,81,0.00,BKN,,0.00,WeatherDisplay:10.37,2013-11-07 08:49:00,
2013-11-07 09:54:00,52.9,46.9,29.91,West,270,8.1,8.1,80,0.00,BKN,,0.00,WeatherDisplay:10.37,2013-11-07 08:54:00,
2013-11-07 09:59:00,53.1,47.1,29.91,SSW,202,8.1,8.1,80,0.00,BKN,,0.00,WeatherDisplay:10.37,2013-11-07 08:59:00,
2013-11-07 10:04:00,53.2,46.9,29.92,SW,225,6.9,6.9,79,0.00,BKN,,0.00,WeatherDisplay:10.37,2013-11-07 09:04:00,
2013-11-07 10:09:00,53.6,46.9,29.92,South,180,6.9,6.9,78,0.00,BKN,,0.00,WeatherDisplay:10.37,2013-11-07 09:09:00,
2013-11-07 10:14:00,54.0,47.3,29.92,South,180,9.2,9.2,78,0.00,BKN,,0.00,WeatherDisplay:10.37,2013-11-07 09:14:00,
2013-11-07 10:19:00,54.1,47.1,29.91,South,180,9.2,9.2,77,0.00,BKN,,0.00,WeatherDisplay:10.37,2013-11-07 09:19:00,
2013-11-07 10:24:00,54.3,47.3,29.92,South,180,8.1,8.1,77,0.00,BKN,,0.00,WeatherDisplay:10.37,2013-11-07 09:24:00,
2013-11-07 10:29:00,54.3,46.9,29.91,SW,225,9.2,9.2,76,0.00,BKN,,0.00,WeatherDisplay:10.37,2013-11-07 09:29:00,
2013-11-07 10:34:00,54.5,47.1,29.92,SW,225,9.8,9.8,76,0.00,BKN,,0.00,WeatherDisplay:10.37,2013-11-07 09:34:00,
2013-11-07 10:39:00,54.9,47.1,29.91,South,180,6.9,6.9,75,0.00,BKN,,0.00,WeatherDisplay:10.37,2013-11-07 09:39:00,
2013-11-07 10:44:00,55.0,47.3,29.91,SE,135,5.8,5.8,75,0.00,BKN,,0.00,WeatherDisplay:10.37,2013-11-07 09:44:00,
2013-11-07 10:49:00,55.2,47.8,29.92,SW,225,5.8,5.8,76,0.00,CLR,BKN,0.00,WeatherDisplay:10.37,2013-11-07 09:49:00,
2013-11-07 10:54:00,55.6,47.4,29.91,South,180,10.4,10.4,74,0.00,CLR,BKN,0.00,WeatherDisplay:10.37,2013-11-07 09:54:00,
2013-11-07 10:59:00,55.8,47.2,29.91,SW,225,8.1,8.1,73,0.00,CLR,BKN,0.00,WeatherDisplay:10.37,2013-11-07 09:59:00,
2013-11-07 11:04:00,55.9,47.4,29.91,ESE,112,10.4,10.4,73,0.00,CLR,BKN,0.00,WeatherDisplay:10.37,2013-11-07 10:04:00,
2013-11-07 11:09:00,56.1,47.6,29.91,South,180,10.4,10.4,73,0.00,CLR,BKN,0.00,WeatherDisplay:10.37,2013-11-07 10:09:00,
2013-11-07 11:14:00,56.3,47.8,29.91,SSW,202,10.7,10.7,73,0.00,CLR,BKN,0.00,WeatherDisplay:10.37,2013-11-07 10:14:00,
2013-11-07 11:19:00,56.7,48.1,29.90,SW,225,9.2,9.2,73,0.00,CLR,BKN,0.00,WeatherDisplay:10.37,2013-11-07 10:19:00,
2013-11-07 11:24:00,56.8,47.9,29.90,South,180,7.6,7.6,72,0.00,CLR,BKN,0.00,WeatherDisplay:10.37,2013-11-07 10:24:00,
2013-11-07 11:29:00,57.0,48.1,29.90,SW,225,11.5,11.5,72,0.00,CLR,BKN,0.00,WeatherDisplay:10.37,2013-11-07 10:29:00,
2013-11-07 11:34:00,57.2,47.9,29.90,South,180,10.4,10.4,71,0.00,CLR,BKN,0.00,WeatherDisplay:10.37,2013-11-07 10:34:00,
2013-11-07 11:39:00,57.2,47.5,29.90,SW,225,15.0,15.0,70,0.00,CLR,BKN,0.00,WeatherDisplay:10.37,2013-11-07 10:39:00,
2013-11-07 11:44:00,57.4,47.7,29.91,SSW,202,12.7,12.7,70,0.00,CLR,BKN,0.00,WeatherDisplay:10.37,2013-11-07 10:44:00,
2013-11-07 11:49:00,57.6,47.8,29.91,West,270,10.4,10.4,70,0.00,CLR,BKN,0.00,WeatherDisplay:10.37,2013-11-07 10:49:00,
2013-11-07 11:54:00,57.9,48.2,29.91,SW,225,9.8,9.8,70,0.00,CLR,BKN,0.00,WeatherDisplay:10.37,2013-11-07 10:54:00,
2013-11-07 11:59:00,58.1,48.4,29.91,South,180,9.2,9.2,70,0.00,CLR,BKN,0.00,WeatherDisplay:10.37,2013-11-07 10:59:00,
2013-11-07 12:04:00,58.1,48.0,29.91,South,180,6.9,6.9,69,0.00,CLR,BKN,0.00,WeatherDisplay:10.37,2013-11-07 11:04:00,
2013-11-07 12:09:00,58.5,48.7,29.91,South,180,6.9,6.9,70,0.00,CLR,BKN,0.00,WeatherDisplay:10.37,2013-11-07 11:09:00,
2013-11-07 12:14:00,58.5,48.3,29.91,South,180,8.1,8.1,69,0.00,CLR,BKN,0.00,WeatherDisplay:10.37,2013-11-07 11:14:00,
2013-11-07 12:19:00,58.8,49.1,29.91,South,180,10.7,10.7,70,0.00,CLR,BKN,0.00,WeatherDisplay:10.37,2013-11-07 11:19:00,
2013-11-07 12:24:00,58.8,48.3,29.91,SW,225,13.0,13.0,68,0.00,CLR,BKN,0.00,WeatherDisplay:10.37,2013-11-07 11:24:00,
2013-11-07 12:29:00,58.6,47.7,29.92,South,180,10.4,10.4,67,0.00,CLR,BKN,0.00,WeatherDisplay:10.37,2013-11-07 11:29:00,
2013-11-07 12:34:00,58.3,47.4,29.91,South,180,11.5,11.5,67,0.00,CLR,BKN,0.00,WeatherDisplay:10.37,2013-11-07 11:34:00,
2013-11-07 12:35:00,58.3,47.4,29.91,SSW,198,5.0,12.0,67,0.00,CLR,BKN,0.00,WeatherDisplay:10.37,2013-11-07 11:35:00,
2013-11-07 12:40:00,58.1,47.2,29.91,South,184,8.0,13.0,67,0.00,CLR,BKN,0.00,WeatherDisplay:10.37,2013-11-07 11:40:00,
2013-11-07 12:45:00,57.8,46.9,29.92,South,191,7.0,12.0,67,0.00,CLR,BKN,0.00,WeatherDisplay:10.37,2013-11-07 11:45:00,
2013-11-07 12:50:00,57.5,46.6,29.91,SSW,195,7.0,12.0,67,0.00,CLR,BKN,0.00,WeatherDisplay:10.37,2013-11-07 11:50:00,
2013-11-07 12:56:00,57.2,46.7,29.92,SW,225,6.9,6.9,68,0.00,CLR,BKN,0.00,WeatherDisplay:10.37,2013-11-07 11:56:00,
2013-11-07 13:01:00,57.2,47.1,29.91,South,180,8.1,8.1,69,0.00,CLR,BKN,0.00,WeatherDisplay:10.37,2013-11-07 12:01:00,
2013-11-07 13:06:00,57.2,47.1,29.92,South,180,10.4,10.4,69,0.00,CLR,BKN,0.00,WeatherDisplay:10.37,2013-11-07 12:06:00,
2013-11-07 13:11:00,57.2,47.1,29.91,SW,225,10.4,10.4,69,0.00,CLR,BKN,0.00,WeatherDisplay:10.37,2013-11-07 12:11:00,
2013-11-07 13:16:00,57.2,47.1,29.91,SW,225,8.1,8.1,69,0.00,CLR,BKN,0.00,WeatherDisplay:10.37,2013-11-07 12:16:00,
2013-11-07 13:21:00,57.4,47.3,29.92,South,180,10.4,10.4,69,0.00,CLR,BKN,0.00,WeatherDisplay:10.37,2013-11-07 12:21:00,
2013-11-07 13:26:00,57.4,47.3,29.92,South,180,8.1,8.1,69,0.00,CLR,BKN,0.00,WeatherDisplay:10.37,2013-11-07 12:26:00,
2013-11-07 13:31:00,57.4,47.3,29.92,SE,135,6.9,6.9,69,0.00,CLR,BKN,0.00,WeatherDisplay:10.37,2013-11-07 12:31:00,
2013-11-07 13:36:00,57.6,47.5,29.91,South,180,6.9,6.9,69,0.00,CLR,BKN,0.00,WeatherDisplay:10.37,2013-11-07 12:36:00,
2013-11-07 13:41:00,57.7,47.6,29.91,SW,225,10.4,10.4,69,0.00,CLR,BKN,0.00,WeatherDisplay:10.37,2013-11-07 12:41:00,
2013-11-07 13:46:00,57.9,47.8,29.91,SSW,202,10.4,10.4,69,0.00,CLR,BKN,0.00,WeatherDisplay:10.37,2013-11-07 12:46:00,
2013-11-07 13:51:00,58.1,48.0,29.92,SSW,202,11.5,11.5,69,0.00,CLR,BKN,0.00,WeatherDisplay:10.37,2013-11-07 12:51:00,
2013-11-07 13:56:00,58.1,47.6,29.91,South,180,11.5,11.5,68,0.00,CLR,BKN,0.00,WeatherDisplay:10.37,2013-11-07 12:56:00,
2013-11-07 14:01:00,58.3,47.8,29.91,South,180,5.8,5.8,68,0.00,CLR,BKN,0.00,WeatherDisplay:10.37,2013-11-07 13:01:00,
2013-11-07 14:06:00,58.3,47.8,29.92,South,180,4.6,4.6,68,0.00,CLR,BKN,0.00,WeatherDisplay:10.37,2013-11-07 13:06:00,
2013-11-07 14:11:00,58.3,47.8,29.92,NW,315,6.9,6.9,68,0.00,CLR,BKN,0.00,WeatherDisplay:10.37,2013-11-07 13:11:00,
2013-11-07 14:16:00,58.1,47.6,29.92,SW,225,8.1,8.1,68,0.00,CLR,BKN,0.00,WeatherDisplay:10.37,2013-11-07 13:16:00,
2013-11-07 14:21:00,58.1,47.6,29.92,South,180,10.7,10.7,68,0.00,CLR,BKN,0.00,WeatherDisplay:10.37,2013-11-07 13:21:00,
2013-11-07 14:26:00,57.9,47.0,29.92,South,180,10.4,10.4,67,0.00,CLR,BKN,0.00,WeatherDisplay:10.37,2013-11-07 13:26:00,
2013-11-07 14:31:00,57.9,47.4,29.93,South,180,10.4,10.4,68,0.00,CLR,BKN,0.00,WeatherDisplay:10.37,2013-11-07 13:31:00,
2013-11-07 14:36:00,57.9,47.4,29.92,SW,225,9.2,9.2,68,0.00,CLR,BKN,0.00,WeatherDisplay:10.37,2013-11-07 13:36:00,
2013-11-07 14:41:00,57.7,47.2,29.93,SW,225,9.2,9.2,68,0.00,CLR,BKN,0.00,WeatherDisplay:10.37,2013-11-07 13:41:00,
2013-11-07 14:46:00,57.7,47.6,29.93,West,270,7.6,7.6,69,0.00,CLR,BKN,0.00,WeatherDisplay:10.37,2013-11-07 13:46:00,
2013-11-07 14:51:00,57.7,47.6,29.93,South,180,5.4,5.4,69,0.00,CLR,BKN,0.00,WeatherDisplay:10.37,2013-11-07 13:51:00,
2013-11-07 14:56:00,57.7,47.6,29.92,SW,225,5.8,5.8,69,0.00,CLR,BKN,0.00,WeatherDisplay:10.37,2013-11-07 13:56:00,
2013-11-07 15:01:00,57.7,48.0,29.92,South,180,4.6,4.6,70,0.00,CLR,BKN,0.00,WeatherDisplay:10.37,2013-11-07 14:01:00,
2013-11-07 15:06:00,57.7,48.0,29.93,SW,225,6.0,6.0,70,0.00,CLR,BKN,0.00,WeatherDisplay:10.37,2013-11-07 14:06:00,
2013-11-07 15:11:00,57.7,48.0,29.92,SW,225,4.6,4.6,70,0.00,CLR,BKN,0.00,WeatherDisplay:10.37,2013-11-07 14:11:00,
2013-11-07 15:16:00,57.7,48.4,29.92,South,180,5.8,5.8,71,0.00,CLR,BKN,0.00,WeatherDisplay:10.37,2013-11-07 14:16:00,
2013-11-07 15:21:00,57.7,48.4,29.93,South,180,5.8,5.8,71,0.00,CLR,BKN,0.00,WeatherDisplay:10.37,2013-11-07 14:21:00,
2013-11-07 15:26:00,57.6,48.2,29.93,SE,135,4.6,4.6,71,0.00,CLR,BKN,0.00,WeatherDisplay:10.37,2013-11-07 14:26:00,
2013-11-07 15:31:00,57.6,48.2,29.93,South,180,5.4,5.4,71,0.00,CLR,BKN,0.00,WeatherDisplay:10.37,2013-11-07 14:31:00,
2013-11-07 15:36:00,57.6,48.2,29.93,South,180,5.8,5.8,71,0.00,CLR,BKN,0.00,WeatherDisplay:10.37,2013-11-07 14:36:00,
2013-11-07 15:41:00,57.6,48.2,29.93,WSW,248,5.8,5.8,71,0.00,CLR,BKN,0.00,WeatherDisplay:10.37,2013-11-07 14:41:00,
2013-11-07 15:46:00,57.6,48.2,29.93,South,180,3.8,3.8,71,0.00,CLR,BKN,0.00,WeatherDisplay:10.37,2013-11-07 14:46:00,
2013-11-07 15:51:00,57.4,48.4,29.93,South,180,5.8,5.8,72,0.00,CLR,BKN,0.00,WeatherDisplay:10.37,2013-11-07 14:51:00,
2013-11-07 15:56:00,57.4,48.4,29.93,SE,135,5.8,5.8,72,0.00,CLR,BKN,0.00,WeatherDisplay:10.37,2013-11-07 14:56:00,
2013-11-07 16:01:00,57.2,48.3,29.93,SW,225,5.8,5.8,72,0.00,CLR,BKN,0.00,WeatherDisplay:10.37,2013-11-07 15:01:00,
2013-11-07 16:06:00,57.2,48.3,29.93,SW,225,3.8,3.8,72,0.00,CLR,BKN,0.00,WeatherDisplay:10.37,2013-11-07 15:06:00,
2013-11-07 16:11:00,57.2,48.3,29.93,South,180,4.6,4.6,72,0.00,CLR,BKN,0.00,WeatherDisplay:10.37,2013-11-07 15:11:00,
2013-11-07 16:16:00,57.0,48.8,29.93,South,180,3.8,3.8,74,0.00,CLR,BKN,0.00,WeatherDisplay:10.37,2013-11-07 15:16:00,
2013-11-07 16:21:00,57.0,48.8,29.93,South,180,3.5,3.5,74,0.00,CLR,BKN,0.00,WeatherDisplay:10.37,2013-11-07 15:21:00,
2013-11-07 16:26:00,56.8,48.6,29.93,South,180,4.6,4.6,74,0.00,CLR,BKN,0.00,WeatherDisplay:10.37,2013-11-07 15:26:00,
2013-11-07 16:31:00,56.7,48.5,29.93,SSE,158,2.3,2.3,74,0.00,CLR,BKN,0.00,WeatherDisplay:10.37,2013-11-07 15:31:00,
2013-11-07 16:36:00,56.7,48.8,29.94,SE,135,2.3,2.3,75,0.00,CLR,BKN,0.00,WeatherDisplay:10.37,2013-11-07 15:36:00,
2013-11-07 16:41:00,56.5,48.6,29.94,SE,135,1.2,0.0,75,0.00,CLR,BKN,0.00,WeatherDisplay:10.37,2013-11-07 15:41:00,
2013-11-07 16:46:00,56.3,48.5,29.94,SE,135,1.2,0.0,75,0.00,CLR,BKN,0.00,WeatherDisplay:10.37,2013-11-07 15:46:00,
2013-11-07 16:51:00,56.1,48.7,29.95,SE,135,1.6,1.6,76,0.00,CLR,BKN,0.00,WeatherDisplay:10.37,2013-11-07 15:51:00,
2013-11-07 16:56:00,55.9,48.5,29.94,South,180,2.3,2.3,76,0.00,CLR,BKN,0.00,WeatherDisplay:10.37,2013-11-07 15:56:00,
2013-11-07 17:01:00,55.8,48.7,29.95,South,180,3.5,3.5,77,0.00,CLR,BKN,0.00,WeatherDisplay:10.37,2013-11-07 16:01:00,
2013-11-07 17:06:00,55.6,48.5,29.94,South,180,3.5,3.5,77,0.00,CLR,BKN,0.00,WeatherDisplay:10.37,2013-11-07 16:06:00,
2013-11-07 17:11:00,55.2,48.5,29.95,South,180,3.8,3.8,78,0.00,CLR,BKN,0.00,WeatherDisplay:10.37,2013-11-07 16:11:00,
2013-11-07 17:16:00,55.2,48.5,29.94,SW,225,3.5,3.5,78,0.00,CLR,BKN,0.00,WeatherDisplay:10.37,2013-11-07 16:16:00,
2013-11-07 17:21:00,55.0,48.3,29.94,SW,225,4.6,4.6,78,0.00,CLR,BKN,0.00,WeatherDisplay:10.37,2013-11-07 16:21:00,
2013-11-07 17:26:00,55.0,48.3,29.95,SW,225,3.8,3.8,78,0.00,CLR,BKN,0.00,WeatherDisplay:10.37,2013-11-07 16:26:00,
2013-11-07 17:31:00,54.9,48.1,29.95,South,180,4.6,4.6,78,0.00,CLR,BKN,0.00,WeatherDisplay:10.37,2013-11-07 16:31:00,
2013-11-07 17:36:00,54.5,47.8,29.95,SE,135,3.5,3.5,78,0.00,CLR,BKN,0.00,WeatherDisplay:10.37,2013-11-07 16:36:00,
2013-11-07 17:41:00,54.3,47.6,29.95,SE,135,2.3,2.3,78,0.00,CLR,BKN,0.00,WeatherDisplay:10.37,2013-11-07 16:41:00,
2013-11-07 17:46:00,54.0,47.6,29.95,SE,135,1.6,1.6,79,0.00,CLR,BKN,0.00,WeatherDisplay:10.37,2013-11-07 16:46:00,
2013-11-07 17:51:00,53.6,47.2,29.96,NE,45,3.5,3.5,79,0.00,CLR,BKN,0.00,WeatherDisplay:10.37,2013-11-07 16:51:00,
2013-11-07 17:56:00,53.2,47.2,29.96,NE,45,3.5,3.5,80,0.00,CLR,BKN,0.00,WeatherDisplay:10.37,2013-11-07 16:56:00,
2013-11-07 18:01:00,53.1,47.4,29.96,NE,45,3.5,3.5,81,0.00,CLR,BKN,0.00,WeatherDisplay:10.37,2013-11-07 17:01:00,
2013-11-07 18:06:00,53.1,47.4,29.96,NE,45,2.3,0.0,81,0.00,CLR,BKN,0.00,WeatherDisplay:10.37,2013-11-07 17:06:00,
2013-11-07 18:11:00,52.3,46.7,29.96,NE,45,1.6,1.6,81,0.00,CLR,BKN,0.00,WeatherDisplay:10.37,2013-11-07 17:11:00,
2013-11-07 18:16:00,52.0,46.7,29.95,South,180,2.3,2.3,82,0.00,CLR,BKN,0.00,WeatherDisplay:10.37,2013-11-07 17:16:00,
2013-11-07 18:21:00,51.6,46.6,29.95,South,180,2.3,2.3,83,0.00,CLR,BKN,0.00,WeatherDisplay:10.37,2013-11-07 17:21:00,
2013-11-07 18:26:00,51.3,46.3,29.96,South,180,3.5,3.5,83,0.00,CLR,BKN,0.00,WeatherDisplay:10.37,2013-11-07 17:26:00,
2013-11-07 18:31:00,50.9,45.9,29.96,South,180,6.0,6.0,83,0.00,CLR,BKN,0.00,WeatherDisplay:10.37,2013-11-07 17:31:00,
2013-11-07 18:36:00,50.9,46.2,29.96,South,180,8.1,8.1,84,0.00,CLR,BKN,0.00,WeatherDisplay:10.37,2013-11-07 17:36:00,
2013-11-07 18:41:00,51.4,47.4,29.96,South,180,7.6,7.6,86,0.00,CLR,BKN,0.00,WeatherDisplay:10.37,2013-11-07 17:41:00,
2013-11-07 18:46:00,51.8,47.4,29.96,South,180,6.9,6.9,85,0.00,CLR,BKN,0.00,WeatherDisplay:10.37,2013-11-07 17:46:00,
2013-11-07 18:51:00,52.3,48.0,29.97,South,180,8.1,8.1,85,0.00,CLR,BKN,0.00,WeatherDisplay:10.37,2013-11-07 17:51:00,
2013-11-07 18:56:00,52.5,48.1,29.97,South,180,8.1,8.1,85,0.00,CLR,BKN,0.00,WeatherDisplay:10.37,2013-11-07 17:56:00,
2013-11-07 19:01:00,52.7,48.3,29.98,South,180,6.9,6.9,85,0.00,CLR,BKN,0.00,WeatherDisplay:10.37,2013-11-07 18:01:00,
2013-11-07 19:06:00,52.9,48.2,29.98,South,180,6.9,6.9,84,0.00,CLR,BKN,0.00,WeatherDisplay:10.37,2013-11-07 18:06:00,
2013-11-07 19:08:00,52.9,48.2,29.97,SSE,158,8.1,8.1,84,0.00,CLR,BKN,0.00,WeatherDisplay:10.37,2013-11-07 18:08:00,
2013-11-07 19:13:00,52.9,48.2,29.97,South,180,8.3,8.3,84,0.00,CLR,BKN,0.00,WeatherDisplay:10.37,2013-11-07 18:13:00,
2013-11-07 19:18:00,52.9,48.2,29.98,SE,135,8.3,8.3,84,0.00,CLR,BKN,0.00,WeatherDisplay:10.37,2013-11-07 18:18:00,
2013-11-07 19:23:00,52.9,48.2,29.98,South,180,8.3,8.3,84,0.00,CLR,BKN,0.00,WeatherDisplay:10.37,2013-11-07 18:23:00,
2013-11-07 19:28:00,52.9,47.9,29.97,South,180,6.9,6.9,83,0.00,CLR,BKN,0.00,WeatherDisplay:10.37,2013-11-07 18:28:00,
2013-11-07 19:33:00,52.9,47.9,29.97,South,180,8.1,8.1,83,0.00,CLR,BKN,0.00,WeatherDisplay:10.37,2013-11-07 18:33:00,
2013-11-07 19:38:00,52.7,47.7,29.97,SW,225,6.9,6.9,83,0.00,CLR,BKN,0.00,WeatherDisplay:10.37,2013-11-07 18:38:00,
2013-11-07 19:43:00,52.5,47.5,29.97,South,180,6.9,6.9,83,0.00,CLR,BKN,0.00,WeatherDisplay:10.37,2013-11-07 18:43:00,
2013-11-07 19:48:00,52.5,47.5,29.98,South,180,8.1,8.1,83,0.00,CLR,BKN,0.00,WeatherDisplay:10.37,2013-11-07 18:48:00,
2013-11-07 19:53:00,52.3,47.6,29.97,South,180,6.9,6.9,84,0.00,CLR,BKN,0.00,WeatherDisplay:10.37,2013-11-07 18:53:00,
2013-11-07 19:58:00,52.3,47.6,29.98,South,180,4.6,4.6,84,0.00,CLR,BKN,0.00,WeatherDisplay:10.37,2013-11-07 18:58:00,
2013-11-07 20:03:00,52.3,47.6,29.98,South,180,3.5,3.5,84,0.00,CLR,BKN,0.00,WeatherDisplay:10.37,2013-11-07 19:03:00,
2013-11-07 20:08:00,52.0,47.0,29.98,SW,225,3.8,3.8,83,0.00,CLR,BKN,0.00,WeatherDisplay:10.37,2013-11-07 19:08:00,
2013-11-07 20:13:00,51.8,47.1,29.98,South,180,5.8,5.8,84,0.00,CLR,BKN,0.00,WeatherDisplay:10.37,2013-11-07 19:13:00,
2013-11-07 20:18:00,51.8,47.1,29.98,South,180,5.8,5.8,84,0.00,CLR,BKN,0.00,WeatherDisplay:10.37,2013-11-07 19:18:00,
2013-11-07 20:23:00,51.6,47.3,29.97,SE,135,3.5,3.5,85,0.00,CLR,BKN,0.00,WeatherDisplay:10.37,2013-11-07 19:23:00,
2013-11-07 20:28:00,51.4,47.1,29.97,South,180,3.8,3.8,85,0.00,CLR,BKN,0.00,WeatherDisplay:10.37,2013-11-07 19:28:00,
2013-11-07 20:33:00,51.3,46.9,29.98,NE,45,2.3,0.0,85,0.00,CLR,BKN,0.00,WeatherDisplay:10.37,2013-11-07 19:33:00,
2013-11-07 20:38:00,51.1,46.7,29.98,North,0,3.5,3.5,85,0.00,CLR,BKN,0.00,WeatherDisplay:10.37,2013-11-07 19:38:00,
2013-11-07 20:43:00,50.9,46.6,29.98,East,90,3.5,0.0,85,0.00,CLR,BKN,0.00,WeatherDisplay:10.37,2013-11-07 19:43:00,
2013-11-07 20:48:00,50.9,46.9,29.98,NW,315,2.3,2.3,86,0.00,CLR,BKN,0.00,WeatherDisplay:10.37,2013-11-07 19:48:00,
2013-11-07 20:53:00,50.7,46.7,29.99,NW,315,2.3,2.3,86,0.00,CLR,BKN,0.00,WeatherDisplay:10.37,2013-11-07 19:53:00,
2013-11-07 20:58:00,50.5,46.5,29.99,NW,315,2.3,0.0,86,0.00,CLR,BKN,0.00,WeatherDisplay:10.37,2013-11-07 19:58:00,
2013-11-07 21:03:00,50.4,46.3,29.99,NW,315,1.2,0.0,86,0.00,CLR,BKN,0.00,WeatherDisplay:10.37,2013-11-07 20:03:00,
2013-11-07 21:08:00,50.2,46.2,29.99,NW,315,2.3,2.3,86,0.00,CLR,BKN,0.00,WeatherDisplay:10.37,2013-11-07 20:08:00,
2013-11-07 21:13:00,50.0,46.0,29.98,SE,135,2.3,2.3,86,0.00,CLR,BKN,0.00,WeatherDisplay:10.37,2013-11-07 20:13:00,
2013-11-07 21:18:00,50.0,46.3,29.98,West,270,2.3,2.3,87,0.00,CLR,BKN,0.00,WeatherDisplay:10.37,2013-11-07 20:18:00,
2013-11-07 21:23:00,50.0,46.3,29.98,West,270,3.5,3.5,87,0.00,CLR,BKN,0.00,WeatherDisplay:10.37,2013-11-07 20:23:00,
2013-11-07 21:28:00,50.0,46.3,29.99,West,270,3.5,3.5,87,0.00,CLR,BKN,0.00,WeatherDisplay:10.37,2013-11-07 20:28:00,
2013-11-07 21:33:00,49.8,46.4,29.99,West,270,3.8,3.8,88,0.00,CLR,BKN,0.00,WeatherDisplay:10.37,2013-11-07 20:33:00,
2013-11-07 21:38:00,49.8,46.4,29.98,West,270,3.5,3.5,88,0.00,CLR,BKN,0.00,WeatherDisplay:10.37,2013-11-07 20:38:00,
2013-11-07 21:43:00,49.6,46.5,29.98,WNW,292,3.1,3.1,89,0.00,CLR,BKN,0.00,WeatherDisplay:10.37,2013-11-07 20:43:00,
2013-11-07 21:48:00,49.6,46.5,29.99,West,270,2.3,2.3,89,0.00,CLR,BKN,0.00,WeatherDisplay:10.37,2013-11-07 20:48:00,
2013-11-07 21:53:00,49.5,46.4,29.99,West,270,2.3,2.3,89,0.00,CLR,BKN,0.00,WeatherDisplay:10.37,2013-11-07 20:53:00,
2013-11-07 21:58:00,49.3,46.2,29.99,West,270,3.5,3.5,89,0.00,CLR,BKN,0.00,WeatherDisplay:10.37,2013-11-07 20:58:00,
2013-11-07 22:03:00,49.3,46.2,29.99,West,270,1.6,1.6,89,0.00,CLR,BKN,0.00,WeatherDisplay:10.37,2013-11-07 21:03:00,
2013-11-07 22:08:00,49.1,46.0,29.99,North,0,2.2,2.2,89,0.00,CLR,BKN,0.00,WeatherDisplay:10.37,2013-11-07 21:08:00,
2013-11-07 22:13:00,48.9,45.8,29.99,North,0,3.5,3.5,89,0.00,CLR,BKN,0.00,WeatherDisplay:10.37,2013-11-07 21:13:00,
2013-11-07 22:18:00,48.9,45.8,30.00,SW,225,1.2,0.0,89,0.00,CLR,BKN,0.00,WeatherDisplay:10.37,2013-11-07 21:18:00,
2013-11-07 22:23:00,48.7,45.9,30.00,SE,135,2.3,0.0,90,0.00,CLR,BKN,0.00,WeatherDisplay:10.37,2013-11-07 21:23:00,
2013-11-07 22:28:00,48.6,45.8,30.00,SE,135,1.2,0.0,90,0.00,CLR,BKN,0.00,WeatherDisplay:10.37,2013-11-07 21:28:00,
2013-11-07 22:33:00,48.2,45.4,30.00,North,0,1.6,1.6,90,0.00,CLR,BKN,0.00,WeatherDisplay:10.37,2013-11-07 21:33:00,
2013-11-07 22:38:00,48.0,45.5,30.00,North,0,1.6,1.6,91,0.00,CLR,BKN,0.00,WeatherDisplay:10.37,2013-11-07 21:38:00,
2013-11-07 22:43:00,48.0,45.5,30.00,NW,315,1.6,1.6,91,0.00,CLR,BKN,0.00,WeatherDisplay:10.37,2013-11-07 21:43:00,
2013-11-07 22:48:00,47.8,45.3,30.00,NW,315,1.6,1.6,91,0.00,CLR,BKN,0.00,WeatherDisplay:10.37,2013-11-07 21:48:00,
2013-11-07 22:53:00,47.7,45.2,30.00,NW,315,1.2,0.0,91,0.00,CLR,BKN,0.00,WeatherDisplay:10.37,2013-11-07 21:53:00,
2013-11-07 22:58:00,47.5,45.0,30.00,SE,135,1.2,0.0,91,0.00,CLR,BKN,0.00,WeatherDisplay:10.37,2013-11-07 21:58:00,
2013-11-07 23:03:00,47.3,44.8,30.00,SE,135,0.0,0.0,91,0.00,CLR,BKN,0.00,WeatherDisplay:10.37,2013-11-07 22:03:00,
2013-11-07 23:08:00,47.1,44.6,30.00,SW,225,0.0,0.0,91,0.00,CLR,BKN,0.00,WeatherDisplay:10.37,2013-11-07 22:08:00,
2013-11-07 23:13:00,47.1,44.6,30.00,SW,225,0.0,0.0,91,0.00,CLR,BKN,0.00,WeatherDisplay:10.37,2013-11-07 22:13:00,
2013-11-07 23:18:00,47.1,44.9,30.00,West,270,1.6,1.6,92,0.00,CLR,BKN,0.00,WeatherDisplay:10.37,2013-11-07 22:18:00,
2013-11-07 23:23:00,47.1,44.9,30.00,West,270,1.2,0.0,92,0.00,CLR,BKN,0.00,WeatherDisplay:10.37,2013-11-07 22:23:00,
2013-11-07 23:28:00,46.9,44.7,30.00,North,0,0.0,0.0,92,0.00,CLR,BKN,0.00,WeatherDisplay:10.37,2013-11-07 22:28:00,
2013-11-07 23:33:00,46.9,44.7,30.01,North,0,0.0,0.0,92,0.00,CLR,BKN,0.00,WeatherDisplay:10.37,2013-11-07 22:33:00,
2013-11-07 23:38:00,46.8,44.6,30.00,North,0,0.0,0.0,92,0.00,CLR,BKN,0.00,WeatherDisplay:10.37,2013-11-07 22:38:00,
2013-11-07 23:43:00,46.8,44.6,30.00,SW,225,0.0,0.0,92,0.00,CLR,BKN,0.00,WeatherDisplay:10.37,2013-11-07 22:43:00,
2013-11-07 23:48:00,46.6,44.4,30.00,SW,225,1.6,1.6,92,0.00,CLR,BKN,0.00,WeatherDisplay:10.37,2013-11-07 22:48:00,
2013-11-07 23:53:00,46.6,44.4,30.00,SW,225,1.2,0.0,92,0.00,CLR,BKN,0.00,WeatherDisplay:10.37,2013-11-07 22:53:00,
2013-11-07 23:58:00,46.4,44.2,30.00,NE,45,2.3,2.3,92,0.00,CLR,BKN,0.00,WeatherDisplay:10.37,2013-11-07 22:58:00,